GFSFLT1_500_rhum_114.txt.gz
RH
12 5 4 4 4 6 11 42 58 77 75 61 55 56 50 45 41 40 40 39 43 49 52 54 63 72 74 97 83 38 28 33
42 13 7 6 6 10 25 58 77 90 89 76 60 56 50 37 34 33 32 32 33 32 35 32 30 42 58 74 90 100 98 85
86 93 65 41 26 25 38 56 89 86 80 74 68 58 46 32 30 35 33 29 29 30 28 26 24 22 25 48 67 95 99 97
100 100 100 86 64 67 58 51 76 91 88 78 65 57 48 37 33 34 34 32 30 26 25 23 22 22 19 17 28 52 76 67
66 95 98 61 70 60 76 63 100 98 90 80 68 59 49 40 36 34 33 30 28 27 25 25 24 22 22 20 20 34 53 49
98 99 81 77 72 62 95 100 98 97 92 83 73 60 46 40 38 35 30 29 30 28 28 26 23 24 24 25 24 19 26 44
93 97 99 81 82 83 85 97 96 99 90 82 82 79 57 44 40 37 32 29 29 30 30 26 24 20 18 10 6 5 6 13
67 87 96 94 82 77 98 97 96 97 85 82 86 78 75 55 44 38 33 31 34 34 29 24 13 11 9 6 6 4 16 11
92 93 100 100 92 92 96 99 98 93 99 75 44 47 50 47 51 61 42 37 33 30 22 8 6 6 5 3 3 10 50 50
92 73 89 100 100 97 99 90 81 86 84 91 88 79 71 51 52 44 40 34 31 18 7 4 5 3 9 24 35 39 48 50
100 100 100 100 100 100 98 91 94 93 98 97 96 88 44 47 49 43 36 32 20 8 6 6 3 3 27 35 46 57 54 54
100 100 100 99 100 99 89 78 64 60 58 60 69 72 60 53 44 41 37 23 10 7 6 5 3 14 44 54 71 51 57 96
100 100 100 99 98 98 83 77 53 52 55 45 43 56 55 54 48 38 29 15 8 9 8 5 3 37 50 81 84 78 82 98
100 100 100 98 99 91 74 54 48 45 45 39 40 52 56 52 40 32 17 11 9 10 8 4 3 38 62 75 97 97 97 97
98 99 97 95 83 69 60 54 49 36 33 38 46 53 52 47 40 22 15 12 12 10 8 3 4 58 70 74 92 98 97 96
74 71 70 76 75 63 65 44 31 28 34 54 59 61 61 58 41 21 15 13 11 8 7 5 24 60 78 76 90 94 96 95
43 36 33 31 37 49 36 30 38 44 43 45 41 46 66 60 35 21 17 15 8 8 5 22 63 77 82 81 83 96 94 97
55 50 46 41 35 36 39 36 27 12 8 8 12 17 20 23 23 21 18 12 8 6 7 49 85 93 88 98 96 97 98 100
6 5 4 5 6 7 6 4 4 3 3 3 3 3 4 4 7 9 7 5 5 10 29 79 93 86 88 89 95 95 93 97

GFSFLT1_500_rhum_117.txt.gz
RH
13 11 10 9 7 7 5 3 4 6 10 16 19 29 55 80 71 63 60 59 57 62 70 71 78 65 85 95 98 86 86 96
8 7 6 6 5 5 5 4 5 7 17 28 28 42 53 79 78 70 61 55 50 46 47 54 52 61 59 61 57 51 58 100
6 6 6 9 10 24 40 28 26 27 28 50 76 80 81 84 87 82 71 60 49 41 40 39 38 35 35 38 29 28 37 47
8 8 12 86 93 93 84 88 92 84 77 77 51 68 98 98 93 85 71 60 44 37 36 36 35 31 29 28 26 27 25 34
34 29 24 67 99 100 100 100 87 74 94 98 98 80 75 97 95 78 65 55 43 37 35 32 32 30 26 25 23 21 16 18
66 74 55 44 99 100 99 98 86 78 80 95 92 96 100 100 95 80 66 57 45 37 34 32 31 28 26 27 24 22 20 17
69 73 84 72 60 99 100 94 98 63 96 99 98 95 98 96 83 74 58 48 42 37 33 31 31 29 29 27 27 26 25 24
89 82 60 84 97 100 100 100 95 95 80 81 97 99 99 97 93 81 71 42 34 31 35 36 37 32 31 29 30 29 26 23
95 83 58 83 86 100 100 99 98 97 85 94 95 97 70 98 96 96 77 78 60 37 37 36 39 36 35 34 30 26 18 13
100 100 100 92 100 82 80 95 93 99 100 97 90 84 91 98 98 63 83 96 96 84 58 62 41 42 37 30 23 14 13 9
100 99 100 100 100 100 97 92 100 99 94 99 80 77 87 75 93 96 76 79 68 81 77 37 38 34 30 14 6 6 7 4
100 100 100 100 100 100 96 100 100 100 98 92 85 50 47 41 35 65 99 86 49 45 41 36 34 25 13 8 6 6 3 3
100 100 100 99 100 100 99 97 99 98 83 77 62 50 38 31 28 37 53 64 63 50 44 39 34 16 8 8 8 6 3 11
81 86 97 99 100 97 97 97 99 94 80 60 55 42 34 32 24 32 41 49 51 50 41 34 24 13 9 9 6 3 2 25
56 55 80 94 79 94 99 100 100 95 68 51 46 41 34 26 24 32 45 51 50 46 39 35 15 12 12 11 6 2 17 53
48 42 37 33 42 64 69 73 65 52 53 50 41 39 33 25 22 32 46 55 52 46 34 19 16 14 11 7 3 10 46 67
55 52 47 43 31 23 28 48 44 42 42 35 41 34 36 33 38 48 51 56 55 47 30 19 16 14 9 4 7 49 62 71
24 20 20 18 23 29 36 29 23 24 26 28 32 33 33 18 12 18 31 41 45 32 23 20 14 10 6 3 48 74 87 91
8 10 10 10 10 8 10 10 10 10 10 9 6 6 6 4 4 4 5 10 18 20 15 12 8 5 4 3 62 95 100 98

GFSFLT1_500_rhum_123.txt.gz
RH
22 21 20 20 19 17 14 11 9 8 8 7 8 11 24 19 10 11 14 13 24 26 41 60 75 92 85 81 84 92 90 96
23 22 20 18 17 16 16 15 15 14 12 9 8 11 38 43 27 23 13 6 7 10 13 27 42 66 90 83 80 80 76 84
22 21 21 20 19 19 18 17 15 13 10 27 35 23 33 20 8 7 7 6 6 7 21 23 30 46 83 84 72 74 69 63
23 22 21 20 19 17 12 9 7 6 5 10 18 51 43 44 81 40 20 25 14 9 10 33 52 58 83 95 82 67 65 59
22 22 22 19 17 12 8 5 8 14 20 39 56 50 49 97 98 93 85 89 75 50 31 38 74 92 97 99 94 83 72 66
24 21 16 12 10 8 6 23 48 42 44 58 72 71 90 91 100 99 98 87 75 80 71 53 68 91 100 99 97 93 85 72
21 16 13 10 8 8 30 65 62 66 57 72 70 96 100 86 100 96 100 96 84 92 85 64 69 59 89 100 96 95 84 69
19 14 12 10 10 15 43 60 93 91 77 90 93 97 100 100 100 98 97 73 84 83 81 79 65 71 64 69 96 85 74 62
24 20 19 21 40 41 32 50 52 61 87 100 100 99 88 100 98 99 98 85 88 70 85 85 70 63 77 76 84 96 63 58
39 31 38 31 32 48 53 51 53 56 80 99 100 100 100 98 100 99 99 73 72 78 53 39 73 86 66 80 85 68 51 35
49 44 73 81 61 65 60 52 61 58 73 81 99 99 98 92 80 99 100 97 80 40 45 44 42 67 93 82 81 73 59 38
56 58 68 69 80 72 71 76 81 86 64 59 61 82 100 98 97 94 94 96 84 68 31 25 25 42 72 91 91 95 80 88
80 70 69 72 73 72 60 55 58 61 89 100 100 100 98 92 100 98 93 87 61 45 32 27 23 19 35 74 88 73 64 62
88 91 93 76 75 76 68 58 46 48 40 41 90 100 100 100 94 84 82 70 55 38 30 28 23 22 19 29 46 80 97 81
91 94 97 87 72 58 48 43 41 39 34 31 33 62 64 68 77 71 71 60 55 50 28 24 27 29 26 28 44 50 52 52
100 100 94 81 64 54 52 51 48 45 42 35 33 33 32 40 48 53 62 66 34 27 22 29 29 27 39 40 44 50 49 47
100 98 89 74 61 45 28 18 10 6 14 28 35 33 35 32 28 25 25 24 24 24 25 28 30 27 27 25 32 52 49 47
100 96 84 56 26 10 11 10 9 8 5 4 6 6 8 6 6 6 6 7 8 11 17 19 21 22 23 20 14 9 20 24
100 94 47 20 29 36 38 45 48 37 31 20 16 18 27 31 53 72 69 67 52 47 50 37 28 24 18 13 9 7 7 6

GFSFLT1_500_rhum_126.txt.gz
RH
32 29 27 25 23 22 22 21 21 20 18 17 17 17 16 16 14 12 10 10 12 15 14 22 27 18 15 29 62 80 72 90
31 28 26 24 23 22 22 21 20 19 18 17 16 16 17 19 24 28 23 15 10 20 16 13 11 15 15 32 31 42 50 71
27 25 25 25 24 21 18 16 16 16 16 16 16 13 11 12 27 28 36 36 28 32 36 23 14 10 9 12 18 26 32 54
26 24 22 21 22 22 21 20 20 18 16 13 11 8 7 12 12 20 40 47 47 45 35 20 16 12 10 7 6 8 22 40
22 22 21 20 21 21 22 21 18 15 12 9 7 7 8 15 21 49 66 72 72 56 70 53 52 29 12 21 13 7 8 27
23 22 22 22 22 22 21 17 13 10 8 10 15 20 32 38 52 73 79 62 48 98 98 98 87 82 62 38 36 27 14 20
24 24 25 25 24 19 15 13 10 9 10 39 56 60 49 53 53 64 70 93 93 99 97 94 94 86 74 66 64 52 51 57
27 26 24 19 17 17 17 17 25 30 44 58 55 74 70 78 79 94 88 70 100 99 98 83 83 83 81 82 82 69 70 64
28 22 18 21 27 28 23 22 26 47 56 52 51 60 58 80 94 97 98 95 100 96 79 67 52 54 77 94 96 81 77 85
23 22 24 31 36 37 29 22 25 34 37 62 65 54 78 96 98 99 98 98 100 93 68 66 62 58 46 51 64 94 98 95
36 36 39 42 43 37 29 31 38 53 55 51 60 71 50 66 81 94 96 97 99 99 92 90 33 31 29 37 57 57 91 94
50 42 36 39 45 44 37 35 42 46 54 56 56 63 64 50 62 80 89 91 96 96 97 96 64 37 46 26 23 40 91 99
59 49 44 36 34 42 45 44 53 56 54 50 45 41 76 89 71 90 94 83 83 94 87 66 48 28 25 25 18 23 49 89
76 67 55 44 50 59 60 62 58 49 44 40 38 38 40 69 100 100 95 93 89 83 66 59 50 37 28 19 24 23 31 53
74 73 62 64 72 72 68 66 54 47 45 43 41 36 36 38 65 69 70 77 76 68 61 55 58 38 25 17 24 27 29 37
75 74 77 73 76 78 73 64 55 50 44 42 36 43 41 39 35 37 43 52 51 51 50 58 46 28 22 20 26 27 35 30
83 96 87 81 78 82 71 64 49 17 9 8 6 7 12 31 35 36 33 31 31 29 28 25 23 22 22 23 25 28 23 29
100 100 96 96 91 88 66 31 10 11 10 9 9 7 8 10 9 10 14 17 17 16 15 13 11 13 17 18 17 17 19 15
90 94 100 100 95 52 20 28 35 40 40 38 28 25 26 32 36 68 95 88 82 82 67 68 59 63 63 55 49 35 23 17

GFSFLT1_500_rhum_132.txt.gz
RH
24 23 22 22 22 24 26 27 28 29 29 27 26 25 24 23 23 23 22 22 22 21 20 19 19 19 17 15 15 16 13 10
22 22 21 21 22 21 22 23 22 21 19 18 18 18 18 18 18 18 17 17 18 17 17 16 16 16 18 23 24 22 20 18
22 22 23 23 22 21 20 20 20 20 20 20 19 18 16 14 12 11 11 11 11 12 14 14 14 13 13 14 19 19 17 19
19 20 21 21 22 22 21 21 20 19 17 15 14 13 12 11 10 10 10 11 11 13 13 13 13 12 13 13 12 14 18 21
23 21 22 22 19 19 19 19 18 17 16 16 15 14 12 12 13 15 14 14 13 12 12 10 9 8 8 39 20 28 32 35
23 24 22 21 20 18 18 17 14 12 12 13 14 13 12 11 11 13 14 12 10 10 10 12 18 21 19 18 35 40 42 46
23 23 23 21 20 18 15 13 11 12 16 17 14 12 13 14 19 18 16 14 13 20 37 46 60 55 51 35 30 34 37 58
24 24 24 22 19 16 12 11 15 24 20 15 15 15 20 26 28 23 25 27 32 52 66 70 64 66 67 61 51 53 74 76
26 25 23 20 16 12 14 21 25 21 18 19 20 26 29 26 21 19 40 56 55 51 63 70 74 83 94 88 82 74 90 98
29 26 24 19 15 19 25 27 26 22 25 25 26 24 22 19 19 19 25 44 49 52 64 71 86 97 81 89 92 89 80 100
30 26 25 24 24 29 30 31 27 25 32 32 27 29 29 23 19 20 19 32 50 61 73 100 100 100 98 100 100 87 83 84
34 32 32 32 32 36 38 34 29 32 48 46 32 38 29 24 32 34 40 40 44 49 80 90 99 100 100 100 100 79 82 69
52 45 46 44 44 45 45 32 32 33 48 56 50 36 34 33 36 36 34 37 39 42 76 100 99 99 100 100 86 77 69 49
78 64 54 50 48 44 43 38 51 78 62 51 43 40 40 33 35 39 37 34 34 37 49 94 100 100 100 100 100 99 100 94
72 61 56 60 54 48 46 39 75 73 53 48 53 48 46 45 42 38 38 37 38 36 39 56 98 100 100 100 100 100 78 58
78 67 65 49 36 38 42 48 59 58 55 77 74 61 58 60 49 23 9 11 14 16 30 38 53 100 100 100 100 97 63 57
89 86 40 33 43 44 58 45 28 57 76 67 68 78 73 28 14 15 14 11 11 14 19 29 32 47 64 72 83 81 44 36
79 37 36 38 52 58 50 47 59 98 90 94 95 50 27 44 46 38 37 41 42 74 98 80 70 60 56 49 44 42 32 26
44 38 42 40 40 38 98 94 84 88 100 95 29 40 57 72 74 74 90 82 100 100 100 100 100 96 84 92 91 80 78 82

GFSFLT1_500_rhum_135.txt.gz
RH
30 26 23 23 22 21 21 20 20 19 19 20 20 19 18 18 19 19 19 20 19 18 17 18 18 19 19 19 20 19 18 17
26 25 25 23 22 21 20 20 20 20 20 19 19 19 18 17 16 16 15 14 14 13 12 13 14 14 14 15 16 16 15 15
26 25 24 22 21 20 20 21 21 21 18 15 15 14 15 14 14 12 10 10 11 10 10 10 9 9 8 8 8 11 11 11
24 24 22 23 22 21 21 22 19 16 15 14 12 12 10 8 7 6 10 10 11 11 11 11 12 11 11 12 9 9 11 11
26 24 22 22 21 19 17 16 15 15 14 13 11 8 6 6 6 10 13 13 12 11 11 12 14 15 16 15 14 13 12 12
28 24 23 21 20 18 17 16 16 16 16 12 8 6 5 6 9 14 15 13 12 13 13 13 13 12 11 10 10 9 10 13
34 30 26 25 23 21 19 17 17 17 14 11 6 6 11 14 16 17 14 13 12 11 16 20 18 16 16 23 23 18 23 44
39 34 30 30 27 24 21 18 17 15 12 8 8 15 18 20 19 17 16 16 18 19 18 16 20 24 28 42 58 59 61 58
42 38 36 34 29 26 23 20 15 11 9 10 14 21 25 22 26 28 23 23 22 20 18 16 17 29 41 37 50 61 69 64
47 43 39 38 32 25 22 18 16 17 20 21 20 23 24 24 31 31 25 26 23 17 20 23 19 30 53 44 70 78 81 77
51 47 41 42 41 31 28 28 29 26 29 28 26 27 26 28 41 44 33 28 22 29 32 33 39 43 50 71 74 89 94 98
62 53 50 52 50 41 39 40 34 33 37 35 32 29 30 49 53 43 37 30 22 25 34 33 35 39 42 88 95 99 95 98
77 64 59 65 71 58 46 41 38 45 44 38 32 32 56 60 47 40 38 34 25 31 34 34 37 36 40 91 92 100 99 100
84 73 69 86 83 66 58 53 53 56 37 28 35 36 47 43 46 56 57 48 33 35 36 36 38 35 40 81 99 100 100 100
100 97 91 100 99 89 78 74 69 38 28 30 38 39 26 26 48 44 41 48 51 39 9 11 15 24 37 67 100 99 100 100
100 100 100 100 99 85 84 79 58 30 32 48 59 35 58 66 76 82 68 39 19 14 12 18 32 44 49 60 85 100 100 100
100 100 100 90 92 85 74 44 35 34 51 40 28 62 64 87 85 30 26 30 28 26 40 77 95 91 96 100 99 99 100 100
88 100 100 100 91 91 44 33 24 26 29 98 65 79 89 82 26 50 59 58 54 76 99 100 100 100 100 99 88 84 82 78
98 97 100 98 81 32 19 15 11 13 16 62 68 96 87 33 57 73 84 88 100 100 100 100 100 100 88 80 91 98 82 66

GFSFLT1_500_rhum_141.txt.gz
RH
53 56 46 41 37 34 32 30 24 20 20 20 20 18 18 18 18 18 17 15 14 12 12 11 10 9 8 7 6 5 5 5
67 76 51 42 35 26 27 25 22 20 20 19 20 20 20 19 19 17 16 14 13 12 11 10 8 7 6 4 4 4 4 3
63 62 49 42 33 28 27 25 23 21 20 20 20 20 19 19 18 16 15 14 12 10 9 8 7 6 6 5 5 4 4 4
57 54 46 42 38 33 30 28 25 24 22 20 20 19 19 18 17 17 16 14 13 11 9 8 8 8 7 6 5 4 4 8
53 49 44 44 38 35 33 31 28 26 25 23 22 23 22 21 20 19 18 18 17 15 13 12 12 12 11 7 6 7 9 13
56 53 47 42 38 37 36 36 34 31 29 28 27 26 26 24 23 22 19 19 18 15 14 14 14 13 10 8 9 12 13 16
56 55 46 42 43 43 43 43 41 40 38 35 33 31 30 28 24 21 21 19 17 17 18 17 17 14 11 10 11 16 20 19
58 55 50 50 51 52 49 50 50 48 47 44 40 37 34 31 28 26 24 23 21 22 22 20 16 14 14 15 18 22 27 20
62 61 59 52 55 57 60 58 60 63 63 55 48 45 40 38 35 33 32 30 30 30 28 21 15 15 19 25 40 37 29 19
72 66 58 56 57 61 62 64 72 66 63 65 59 52 46 44 43 41 43 40 40 36 28 17 15 18 21 27 44 37 30 20
68 73 70 69 68 68 69 78 74 64 66 69 68 61 55 52 49 52 56 50 39 30 17 13 14 22 26 27 24 42 33 30
81 87 90 88 85 84 89 83 71 75 86 86 71 64 61 56 61 68 57 40 30 19 13 13 11 12 30 50 46 27 25 30
84 88 100 100 95 91 90 74 87 94 98 81 83 82 76 68 72 68 46 33 22 14 11 10 8 43 49 40 29 30 28 17
91 96 100 99 94 91 87 87 90 100 92 98 92 85 85 55 49 54 38 25 15 12 12 17 43 42 30 17 15 18 18 30
100 100 100 100 98 85 88 94 98 91 100 98 93 78 64 47 52 49 30 17 13 14 39 45 37 23 17 22 40 41 45 74
100 100 100 96 97 98 100 100 100 100 100 94 89 79 60 55 48 35 21 12 13 55 49 38 33 30 33 58 95 100 99 100
100 99 100 100 100 100 100 100 100 100 100 93 88 73 60 53 41 24 12 19 51 56 47 45 44 57 90 100 100 100 90 86
95 98 100 100 98 99 92 100 100 100 100 100 92 82 57 46 30 16 12 50 61 50 57 59 79 96 100 100 98 85 67 48
96 100 100 100 85 74 93 100 100 96 98 99 99 88 51 35 19 13 25 53 60 55 58 64 74 95 100 98 90 92 88 66

GFSFLT1_500_rhum_144.txt.gz
RH
35 36 67 67 71 65 55 44 38 33 31 30 26 21 20 20 19 18 17 16 16 16 16 14 13 11 10 9 9 8 7 6
54 57 85 67 70 71 65 55 38 28 26 25 23 21 19 18 18 18 18 18 18 17 15 14 13 12 11 9 8 7 6 5
58 90 91 55 73 77 62 46 34 29 27 25 24 22 21 20 20 20 19 19 18 17 16 16 15 14 14 11 11 10 9 8
65 91 72 54 62 59 52 45 41 35 31 29 28 25 24 23 22 21 20 20 19 19 18 19 18 16 15 14 13 13 15 18
64 76 53 53 58 55 47 44 40 36 33 32 31 29 27 26 24 24 24 24 23 23 22 22 18 16 14 14 16 18 19 22
59 53 51 53 55 50 46 42 39 36 37 37 37 36 34 33 31 29 28 28 28 28 26 21 18 18 20 20 23 26 28 24
55 52 50 55 56 56 53 44 43 44 45 44 44 44 43 41 41 39 37 34 32 30 26 23 25 26 26 29 30 24 18 17
55 52 54 62 64 62 56 52 51 51 51 49 49 51 50 52 54 55 52 47 42 38 35 35 33 31 32 26 22 19 14 7
70 70 76 79 68 62 61 62 56 55 54 54 56 58 61 57 53 53 57 55 48 47 43 38 34 30 26 22 16 9 6 7
85 88 92 84 81 89 79 62 60 60 71 68 66 67 64 60 59 60 66 62 46 45 38 33 32 31 24 15 8 7 8 15
94 89 87 92 86 82 80 78 85 95 92 83 79 80 74 70 69 73 68 59 59 46 33 30 30 26 17 10 8 8 21 38
89 88 94 94 94 96 96 97 100 100 100 94 91 86 83 78 78 75 73 69 53 30 28 34 28 16 10 9 7 15 33 33
89 97 98 98 99 100 100 100 100 100 100 95 88 87 89 90 89 84 83 68 52 37 34 28 19 11 10 6 15 31 20 14
93 100 100 100 100 100 100 95 100 100 97 99 96 95 100 100 89 93 91 76 49 40 30 21 14 11 7 20 27 16 19 21
89 98 100 100 100 100 100 100 100 100 100 100 100 100 100 100 100 100 78 56 47 36 25 17 12 13 22 26 19 27 52 70
98 100 100 98 99 100 100 98 100 100 100 97 86 99 100 100 100 94 73 60 50 34 23 16 15 29 30 28 41 77 100 100
100 100 100 100 100 100 99 100 100 100 94 100 97 100 100 94 96 89 81 61 39 26 17 11 30 40 39 48 75 95 100 100
99 99 100 100 100 99 100 100 96 99 97 91 85 96 100 95 90 95 82 52 26 22 14 32 45 40 55 68 87 100 94 87
97 100 100 100 100 99 100 100 100 99 100 97 100 97 100 98 93 86 62 39 27 16 28 50 44 40 56 62 83 100 90 86

GFSFLT1_500_rhum_150.txt.gz
RH
17 16 18 21 24 25 47 67 59 60 58 59 57 56 58 54 40 31 24 23 22 21 20 20 20 20 18 18 18 18 19 18
19 20 24 25 32 44 54 60 70 78 75 65 57 60 63 54 43 35 27 23 23 22 21 20 20 19 19 18 18 18 18 17
23 25 37 42 50 55 59 71 81 87 75 69 58 54 58 53 47 38 30 28 26 25 24 24 23 22 21 21 20 19 19 19
32 42 50 52 52 55 59 72 89 85 75 72 57 51 54 55 48 42 37 33 31 30 30 29 28 27 26 24 24 24 24 24
49 57 64 73 78 78 81 88 89 85 80 75 58 52 56 55 47 41 35 33 34 35 36 36 37 38 38 37 36 34 33 32
57 61 64 67 67 71 67 68 75 82 79 70 59 54 57 57 50 43 38 39 42 43 43 44 44 45 44 46 46 46 47 49
68 70 65 61 60 64 62 64 70 74 73 65 55 56 68 61 54 50 45 47 49 49 47 46 46 48 50 50 48 46 44 44
63 66 72 73 64 62 61 63 68 72 72 68 67 76 79 76 66 55 52 55 55 51 50 56 57 53 51 51 49 44 43 49
56 60 70 77 70 61 61 60 58 57 62 68 78 78 70 68 60 59 60 66 62 58 61 72 66 58 52 47 48 51 51 44
80 79 87 91 86 88 76 68 65 67 76 87 83 78 76 81 75 68 77 78 70 65 72 77 65 57 55 55 58 49 41 37
70 88 92 92 96 97 93 90 90 93 98 99 99 97 95 86 76 88 88 86 79 89 80 76 67 65 59 55 51 45 38 33
66 82 96 99 96 96 100 100 98 99 100 99 99 99 98 95 100 95 96 97 99 90 82 78 70 66 60 57 40 30 28 25
51 77 87 100 100 98 99 98 99 99 99 100 97 98 98 99 99 100 97 100 96 75 73 77 58 52 50 51 59 30 30 30
26 49 72 92 96 99 98 98 99 98 100 100 97 96 96 100 100 100 100 99 85 82 85 43 29 37 40 56 48 33 39 38
11 19 78 100 100 98 100 100 99 99 100 100 100 99 98 99 100 100 98 98 96 56 41 36 25 38 73 64 52 54 43 28
27 34 39 56 87 100 100 98 96 98 99 98 96 92 95 100 100 99 99 99 85 59 52 35 41 59 67 63 66 52 30 21
53 48 50 74 95 95 96 99 100 98 97 97 98 100 100 100 100 97 100 100 98 69 46 50 57 88 76 74 57 40 23 21
29 29 32 70 86 100 96 80 100 94 91 96 100 100 100 100 100 100 100 100 66 52 57 93 98 90 86 68 55 26 24 36
37 71 92 80 86 74 76 75 98 90 93 100 100 100 100 100 100 100 100 100 84 85 88 100 100 93 76 58 34 21 34 43